C/2017 C2 ( PanSTARRS )

Japanese version
Home page
Updated on February 27, 2017

---------------------------------------------------------------------

* Profile

Discovery Date February 4, 2017
Magnitude 19.6 mag
Discoverer Pan-STARRS 1 telescope (Haleakala)

* Pictures

* Orbital Elements

Epoch 2017 Jan. 7.0 TT = JDT 2457760.5
T 2017 Jan. 21.54937 TT                                 MPCW
q   2.4317494            (2000.0)            P               Q
z  +0.0085896      Peri.  138.74433     -0.03661285     +0.56516809
 +/-0.0016019      Node   249.80852     +0.51692203     +0.71652151
e   0.9791123      Incl.  118.58253     +0.85524916     -0.40887891
From 71 observations 2017 Feb. 4-18, mean residual 0".6.

* Magnitudes Graph

        m1 = 13.0 + 5 log d + 10.0 log r

---------------------------------------------------------------------

The orbital elements are published on M.P.E.C. 2017-D22.
The magnitudes graphs are made with Comet for Windows.

---------------------------------------------------------------------

Copyright(C) Seiichi Yoshida (comet@aerith.net). All rights reserved.